GW3424 Weather Reports


time (UTC)temp
F
wind
direction
speed
knots
gust
knots
rain 1hr
in
rain 24hr
in
rain mn
in
humidity
%
barometer
mb
20260906152551 86 360 4.3 7.8 0.00 0.00 0.00 46 974.9
20260906152053 86 360 4.3 7.8 0.00 0.00 0.00 45 974.9
20260906151552 87 360 5.2 7.8 0.00 0.00 0.00 45 975.0
20260906151052 88 360 6.1 10.4 0.00 0.00 0.00 45 974.9
20260906150552 88 360 6.1 10.4 0.00 0.00 0.00 45 974.8
20260906150056 90 9 6.1 9.6 0.00 0.00 0.00 41 974.6
20260906145554 90 11 5.2 8.7 0.00 0.00 0.00 35 974.6
20260906145055 90 11 2.6 7.8 0.00 0.00 0.00 36 974.6
20260906144600 89 360 4.3 8.7 0.00 0.00 0.00 38 974.5
20260906144052 88 360 3.5 8.7 0.00 0.00 0.00 39 974.4
20260906143552 86 360 1.7 5.2 0.00 0.00 0.00 44 974.4
20260906143055 86 360 1.7 5.2 0.00 0.00 0.00 44 974.4
20260906142552 85 360 1.7 5.2 0.00 0.00 0.00 45 974.3
20260906142052 85 360 1.7 3.5 0.00 0.00 0.00 46 974.2
20260906141553 84 360 2.6 3.5 0.00 0.00 0.00 45 974.3
20260906141052 84 360 0.9 4.3 0.00 0.00 0.00 47 974.3
20260906140552 84 360 1.7 5.2 0.00 0.00 0.00 48 974.3
20260906140054 83 360 2.6 5.2 0.00 0.00 0.00 48 974.2
20260906135552 83 360 2.6 4.3 0.00 0.00 0.00 49 974.1
20260906135052 82 360 1.7 3.5 0.00 0.00 0.00 49 974.1
20260906134603 82 360 0.9 1.7 0.00 0.00 0.00 49 974.0
20260906134052 82 360 0.0 1.7 0.00 0.00 0.00 48 974.0
20260906133552 82 360 0.0 3.5 0.00 0.00 0.00 48 973.9
20260906133056 82 360 1.7 3.5 0.00 0.00 0.00 48 973.9
20260906132554 82 360 0.9 2.6 0.00 0.00 0.00 47 973.9
20260906132051 82 360 0.9 2.6 0.00 0.00 0.00 47 973.8
20260906131553 82 360 0.0 3.5 0.00 0.00 0.00 47 973.8
20260906131051 82 360 0.9 3.5 0.00 0.00 0.00 47 973.7
20260906130552 82 360 0.0 0.9 0.00 0.00 0.00 47 973.7
20260906125555 83 360 0.0 1.7 0.00 0.00 0.00 46 973.7
20260906125051 83 360 0.0 3.5 0.00 0.00 0.00 45 973.7
20260906124553 84 360 1.7 3.5 0.00 0.00 0.00 45 973.6
20260906124053 84 360 0.9 2.6 0.00 0.00 0.00 44 973.7
20260906123552 85 360 0.0 2.6 0.00 0.00 0.00 43 973.6
20260906123052 85 360 0.9 2.6 0.00 0.00 0.00 43 973.6
20260906122552 86 360 0.0 2.6 0.00 0.00 0.00 42 973.6
20260906122051 87 360 0.0 5.2 0.00 0.00 0.00 41 973.5
20260906121552 88 360 2.6 7.0 0.00 0.00 0.00 41 973.5
20260906121052 89 360 1.7 7.8 0.00 0.00 0.00 38 973.4
20260906120552 89 360 3.5 8.7 0.00 0.00 0.00 37 973.6
20260906120052 89 360 6.1 8.7 0.00 0.00 0.00 37 973.5
20260906115552 89 360 5.2 8.7 0.00 0.00 0.00 37 973.4
20260906115051 89 360 3.5 7.0 0.00 0.00 0.00 37 973.4
20260906114603 89 360 4.3 8.7 0.00 0.00 0.00 37 973.4
20260906114051 90 360 4.3 9.6 0.00 0.00 0.00 37 973.5
20260906113552 89 360 5.2 9.6 0.00 0.00 0.00 37 973.5
20260906113052 89 360 6.1 8.7 0.00 0.00 0.00 37 973.5
20260906112552 89 360 4.3 8.7 0.00 0.00 0.00 37 973.4
20260906112052 89 360 3.5 9.6 0.00 0.00 0.00 38 973.6
20260906111616 89 360 6.1 9.6 0.00 0.00 0.00 38 973.6
20260906111056 88 360 5.2 8.7 0.00 0.00 0.00 39 973.5
20260906110555 87 360 3.5 8.7 0.00 0.00 0.00 41 973.6
20260906110051 86 360 3.5 8.7 0.00 0.00 0.00 42 973.5
20260906105552 84 360 3.5 5.2 0.00 0.00 0.00 44 973.6
20260906105052 84 360 3.5 4.3 0.00 0.00 0.00 46 973.5
20260906104554 84 360 1.7 3.5 0.00 0.00 0.00 46 973.5
20260906104052 84 360 0.9 3.5 0.00 0.00 0.00 46 973.5
20260906103552 85 360 1.7 4.3 0.00 0.00 0.00 45 973.5
20260906103052 85 360 1.7 3.5 0.00 0.00 0.00 45 973.4
20260906102552 85 360 1.7 4.3 0.00 0.00 0.00 44 973.5
20260906102051 85 360 2.6 4.3 0.00 0.00 0.00 44 973.4
20260906101552 86 360 2.6 3.5 0.00 0.00 0.00 43 973.3
20260906101053 86 360 0.9 4.3 0.00 0.00 0.00 42 973.4
20260906100552 86 360 2.6 4.3 0.00 0.00 0.00 43 973.5
20260906100051 86 360 1.7 4.3 0.00 0.00 0.00 43 973.4
20260906095554 86 360 1.7 4.3 0.00 0.00 0.00 41 973.3
20260906095052 86 360 1.7 5.2 0.00 0.00 0.00 43 973.4
20260906094552 85 360 3.5 5.2 0.00 0.00 0.00 43 973.5
20260906094052 85 360 0.9 3.5 0.00 0.00 0.00 45 973.6
20260906093552 85 360 1.7 3.5 0.00 0.00 0.00 45 973.5
20260906093100 85 360 1.7 3.5 0.00 0.00 0.00 46 973.4
20260906092552 85 360 1.7 3.5 0.00 0.00 0.00 45 973.5
20260906092052 86 360 1.7 4.3 0.00 0.00 0.00 45 973.4
20260906091552 86 360 2.6 4.3 0.00 0.00 0.00 43 973.4
20260906091052 87 360 2.6 4.3 0.00 0.00 0.00 42 973.3
20260906090551 87 360 1.7 5.2 0.00 0.00 0.00 41 973.2
20260906085551 88 360 2.6 4.3 0.00 0.00 0.00 40 973.4
20260906085051 88 360 1.7 4.3 0.00 0.00 0.00 40 973.4
20260906084556 89 360 1.7 4.3 0.00 0.00 0.00 39 973.4
20260906084052 89 360 1.7 4.3 0.00 0.00 0.00 37 973.5
20260906083552 90 20 1.7 5.2 0.00 0.00 0.00 37 973.4
20260906083052 90 360 1.7 7.0 0.00 0.00 0.00 36 973.6
20260906082551 90 360 2.6 8.7 0.00 0.00 0.00 36 973.6
20260906082055 90 360 2.6 8.7 0.00 0.00 0.00 36 973.6
20260906081555 90 360 3.5 8.7 0.00 0.00 0.00 35 973.6
20260906081055 90 360 5.2 8.7 0.00 0.00 0.00 35 973.6
20260906080552 90 360 4.3 7.8 0.00 0.00 0.00 35 973.7
20260906080055 90 360 4.3 7.8 0.00 0.00 0.00 35 973.7
20260906075551 90 360 5.2 7.8 0.00 0.00 0.00 35 973.7
20260906075052 90 360 3.5 7.0 0.00 0.00 0.00 35 973.7
20260906074555 90 360 4.3 7.0 0.00 0.00 0.00 35 973.9
20260906074051 91 360 1.7 7.0 0.00 0.00 0.00 35 973.8
20260906073554 91 360 4.3 7.8 0.00 0.00 0.00 35 973.8
20260906073058 91 360 2.6 7.8 0.00 0.00 0.00 34 973.9
20260906072554 91 360 3.5 7.8 0.00 0.00 0.00 34 973.8
20260906072054 91 360 3.5 8.7 0.00 0.00 0.00 34 973.9
20260906071552 91 360 4.3 8.7 0.00 0.00 0.00 34 973.9
20260906071052 91 128 3.5 7.8 0.00 0.00 0.00 34 974.0
20260906070552 91 124 4.3 9.6 0.00 0.00 0.00 34 973.9
20260906070109 91 120 5.2 9.6 0.00 0.00 0.00 34 974.1
20260906065555 91 132 3.5 8.7 0.00 0.00 0.00 34 974.0
20260906065052 91 141 2.6 7.0 0.00 0.00 0.00 34 974.0
20260906064552 91 360 3.5 7.8 0.00 0.00 0.00 34 974.0
20260906064053 92 360 4.3 7.8 0.00 0.00 0.00 33 973.9
20260906063551 92 360 2.6 7.0 0.00 0.00 0.00 32 974.0
20260906063052 92 360 3.5 5.2 0.00 0.00 0.00 32 974.0
20260906062551 92 360 3.5 7.0 0.00 0.00 0.00 32 973.9
20260906062052 92 360 3.5 7.0 0.00 0.00 0.00 32 973.9
20260906061609 91 360 3.5 7.0 0.00 0.00 0.00 33 973.9
20260906061051 91 360 3.5 5.2 0.00 0.00 0.00 33 974.0
20260906060555 90 360 1.7 3.5 0.00 0.00 0.00 34 974.0
20260906060052 90 360 0.0 1.7 0.00 0.00 0.00 37 974.0
20260906055553 90 360 0.0 0.9 0.00 0.00 0.00 36 974.0
20260906055052 90 360 0.0 0.9 0.00 0.00 0.00 35 974.1
20260906054552 90 360 0.0 0.9 0.00 0.00 0.00 35 974.0
20260906054052 91 360 0.0 0.9 0.00 0.00 0.00 35 974.0
20260906053552 91 360 0.0 1.7 0.00 0.00 0.00 33 974.0
20260906053056 91 360 0.0 2.6 0.00 0.00 0.00 33 974.0
20260906052552 92 360 0.9 3.5 0.00 0.00 0.00 32 974.1
20260906052052 93 360 1.7 3.5 0.00 0.00 0.00 32 974.1
20260906051552 93 360 0.9 3.5 0.00 0.00 0.00 31 974.1
20260906051052 94 360 1.7 4.3 0.00 0.00 0.00 31 974.1
20260906050551 94 360 2.6 5.2 0.00 0.00 0.00 30 974.2
20260906050108 94 360 2.6 5.2 0.00 0.00 0.00 30 974.1
20260906045551 94 360 2.6 4.3 0.00 0.00 0.00 30 974.1
20260906045052 94 360 2.6 5.2 0.00 0.00 0.00 30 974.1
20260906044552 94 360 3.5 5.2 0.00 0.00 0.00 30 974.2
20260906044052 94 360 3.5 5.2 0.00 0.00 0.00 31 974.1
20260906043551 94 360 2.6 4.3 0.00 0.00 0.00 31 974.1
20260906043106 94 360 2.6 4.3 0.00 0.00 0.00 31 974.1
20260906042551 94 360 2.6 5.2 0.00 0.00 0.00 30 974.2
20260906042051 94 360 2.6 5.2 0.00 0.00 0.00 30 974.2
20260906041552 94 360 2.6 5.2 0.00 0.00 0.00 30 974.2
20260906041052 94 360 2.6 4.3 0.00 0.00 0.00 30 974.1
20260906040551 94 360 2.6 4.3 0.00 0.00 0.00 31 974.1
20260906040110 94 360 2.6 4.3 0.00 0.00 0.00 31 974.2
20260906035552 93 360 1.7 3.5 0.00 0.00 0.00 31 974.1
20260906035052 93 360 2.6 3.5 0.00 0.00 0.00 31 974.1
20260906034552 93 360 1.7 3.5 0.00 0.00 0.00 31 974.0
20260906034051 93 360 0.9 1.7 0.00 0.00 0.00 32 973.9
20260906033551 93 360 0.0 0.0 0.00 0.00 0.00 32 973.8
20260906033053 93 360 0.0 0.0 0.00 0.00 0.00 32 973.9
20260906032555 93 360 0.0 0.9 0.00 0.00 0.00 32 973.7
20260906032054 93 360 0.0 0.9 0.00 0.00 0.00 32 973.7
20260906031554 93 360 0.0 0.9 0.00 0.00 0.00 32 973.6
20260906031052 93 360 0.0 2.6 0.00 0.00 0.00 32 973.6
20260906030552 93 360 0.0 4.3 0.00 0.00 0.00 32 973.5
20260906030059 93 360 2.6 5.2 0.00 0.00 0.00 32 973.5
20260906025551 93 360 2.6 5.2 0.00 0.00 0.00 32 973.5
20260906025052 93 360 2.6 7.0 0.00 0.00 0.00 32 973.5
20260906024551 93 360 2.6 7.8 0.00 0.00 0.00 32 973.5
20260906024056 93 360 5.2 8.7 0.00 0.00 0.00 32 973.4
20260906023552 93 360 6.1 8.7 0.00 0.00 0.00 32 973.4
20260906023106 93 360 5.2 7.8 0.00 0.00 0.00 32 973.3
20260906022551 93 144 5.2 7.8 0.00 0.00 0.00 32 973.4
20260906022052 93 13 5.2 7.8 0.00 0.00 0.00 32 973.4
20260906021552 94 14 4.3 7.0 0.00 0.00 0.00 32 973.3
20260906021051 94 15 3.5 7.0 0.00 0.00 0.00 32 973.3
20260906020552 94 19 4.3 7.0 0.00 0.00 0.00 32 973.3
20260906020051 94 15 4.3 7.0 0.00 0.00 0.00 32 973.4
20260906015551 94 360 3.5 7.0 0.00 0.00 0.00 31 973.4
20260906015052 95 15 3.5 7.0 0.00 0.00 0.00 31 973.3
20260906014608 95 360 4.3 7.0 0.00 0.00 0.00 32 973.4
20260906014051 95 360 4.3 7.8 0.00 0.00 0.00 32 973.4
20260906013552 95 360 4.3 7.8 0.00 0.00 0.00 32 973.5
20260906013054 96 360 3.5 7.0 0.00 0.00 0.00 31 973.4
20260906012551 96 360 3.5 7.0 0.00 0.00 0.00 31 973.5
20260906012051 96 360 4.3 7.8 0.00 0.00 0.00 31 973.5
20260906011556 96 21 4.3 7.8 0.00 0.00 0.00 31 973.5
20260906011051 96 360 5.2 7.8 0.00 0.00 0.00 30 973.6
20260906010551 96 360 4.3 7.8 0.00 0.00 0.00 30 973.6
20260906010052 96 360 5.2 9.6 0.00 0.00 0.00 30 973.5
20260906005551 97 360 6.1 10.4 0.00 0.00 0.00 30 973.7
20260906005052 97 360 6.1 10.4 0.00 0.00 0.00 29 973.7
20260906004607 97 360 7.8 12.2 0.00 0.00 0.00 29 973.6
20260906004055 97 360 7.8 14.8 0.00 0.00 0.00 29 973.5
20260906003551 97 360 10.4 14.8 0.00 0.00 0.00 29 973.6
20260906003054 98 360 8.7 13.9 0.00 0.00 0.00 29 973.5
20260906002551 98 360 8.7 13.9 0.00 0.00 0.00 29 973.6
20260906002052 98 360 7.8 13.0 0.00 0.00 0.00 28 973.4
20260906001551 98 360 7.8 13.0 0.00 0.00 0.00 28 973.5
20260906001051 98 360 9.6 13.0 0.00 0.00 0.00 28 973.4
20260906000552 98 360 8.7 13.0 0.00 0.00 0.00 28 973.5
20260906000104 98 360 8.7 13.0 0.00 0.00 0.00 28 973.4
20260905235552 98 360 7.0 13.0 0.00 0.00 0.00 28 973.5
20260905235052 98 360 9.6 13.0 0.00 0.00 0.00 28 973.4
20260905234556 98 360 9.6 12.2 0.00 0.00 0.00 28 973.4
20260905234051 99 360 7.8 12.2 0.00 0.00 0.00 28 973.3
20260905233552 99 360 7.8 11.3 0.00 0.00 0.00 27 973.4
20260905233056 99 17 8.7 12.2 0.00 0.00 0.00 27 973.4
20260905232552 99 132 7.0 12.2 0.00 0.00 0.00 27 973.5
20260905232052 99 128 7.0 12.2 0.00 0.00 0.00 26 973.5
20260905231554 100 130 7.8 13.9 0.00 0.00 0.00 27 973.5
20260905231051 100 126 7.8 13.0 0.00 0.00 0.00 26 973.5
20260905230551 100 127 9.6 13.0 0.00 0.00 0.00 26 973.5
20260905230052 100 360 8.7 13.9 0.00 0.00 0.00 26 973.5
20260905225555 100 130 9.6 14.8 0.00 0.00 0.00 26 973.6
20260905225051 99 360 8.7 14.8 0.00 0.00 0.00 26 973.7
20260905224603 99 134 8.7 13.0 0.00 0.00 0.00 27 973.7
20260905224052 99 360 7.8 13.0 0.00 0.00 0.00 27 973.7
20260905223551 99 133 7.8 13.0 0.00 0.00 0.00 27 973.6
20260905223052 98 360 7.0 13.0 0.00 0.00 0.00 27 973.7
20260905222552 98 360 7.8 13.0 0.00 0.00 0.00 27 973.8
20260905222051 98 360 9.6 13.0 0.00 0.00 0.00 27 973.9
20260905221551 98 360 8.7 13.0 0.00 0.00 0.00 26 973.9
20260905221052 98 15 8.7 13.0 0.00 0.00 0.00 26 973.9
20260905220551 98 16 6.1 13.9 0.00 0.00 0.00 27 973.9
20260905220053 98 17 8.7 13.9 0.00 0.00 0.00 27 974.1
20260905215552 98 29 8.7 13.0 0.00 0.00 0.00 27 974.2
20260905215051 98 17 8.7 14.8 0.00 0.00 0.00 27 974.2
20260905214552 98 20 8.7 14.8 0.00 0.00 0.00 27 974.2
20260905214052 98 22 9.6 14.8 0.00 0.00 0.00 26 974.2
20260905213552 99 146 10.4 14.8 0.00 0.00 0.00 26 974.3
20260905213052 99 128 7.8 12.2 0.00 0.00 0.00 26 974.2
20260905212552 99 134 7.0 11.3 0.00 0.00 0.00 27 974.3
20260905212052 99 157 7.0 12.2 0.00 0.00 0.00 26 974.4
20260905211552 99 126 8.7 13.9 0.00 0.00 0.00 26 974.5
20260905211052 99 117 10.4 13.9 0.00 0.00 0.00 26 974.4
20260905210552 99 63 9.6 13.9 0.00 0.00 0.00 26 974.5
20260905210051 99 133 8.7 12.2 0.00 0.00 0.00 26 974.5
20260905205551 99 49 7.0 12.2 0.00 0.00 0.00 26 974.6
20260905205052 99 76 7.0 12.2 0.00 0.00 0.00 26 974.7
20260905204551 100 126 4.3 13.0 0.00 0.00 0.00 25 974.7
20260905204051 101 143 5.2 10.4 0.00 0.00 0.00 25 974.8
20260905203551 102 187 4.3 8.7 0.00 0.00 0.00 24 974.8
20260905203054 101 65 0.9 7.8 0.00 0.00 0.00 25 974.9
20260905202551 100 51 1.7 5.2 0.00 0.00 0.00 25 975.0
20260905202051 100 107 1.7 7.0 0.00 0.00 0.00 26 975.1
20260905201552 100 360 0.9 7.0 0.00 0.00 0.00 28 975.1
20260905201051 99 161 3.5 7.0 0.00 0.00 0.00 28 975.2
20260905200551 98 132 2.6 7.0 0.00 0.00 0.00 28 975.2
20260905200056 99 315 4.3 8.7 0.00 0.00 0.00 28 975.3
20260905195552 99 212 4.3 9.6 0.00 0.00 0.00 29 975.4
20260905195053 98 209 2.6 7.0 0.00 0.00 0.00 29 975.5
20260905194552 98 210 2.6 8.7 0.00 0.00 0.00 30 975.5
20260905194051 98 360 6.1 8.7 0.00 0.00 0.00 29 975.6
20260905193553 99 360 6.1 8.7 0.00 0.00 0.00 30 975.6
20260905193051 99 206 2.6 7.0 0.00 0.00 0.00 29 975.7
20260905192552 99 187 3.5 7.0 0.00 0.00 0.00 30 975.7
20260905192054 99 360 4.3 7.0 0.00 0.00 0.00 30 975.8
20260905191551 98 213 4.3 7.8 0.00 0.00 0.00 30 975.9
20260905191051 98 205 4.3 7.8 0.00 0.00 0.00 31 976.0
20260905190551 98 184 5.2 7.8 0.00 0.00 0.00 31 976.1
20260905185553 97 153 1.7 7.8 0.00 0.00 0.00 31 976.3
20260905185052 96 135 1.7 4.3 0.00 0.00 0.00 32 976.4
20260905184559 96 136 2.6 7.8 0.00 0.00 0.00 32 976.4
20260905184051 96 95 4.3 7.8 0.00 0.00 0.00 32 976.4
20260905183552 97 142 4.3 7.0 0.00 0.00 0.00 31 976.4
20260905183057 97 155 0.0 5.2 0.00 0.00 0.00 31 976.6
20260905182551 97 153 2.6 6.1 0.00 0.00 0.00 32 976.6
20260905182052 97 151 0.0 6.1 0.00 0.00 0.00 32 976.7
20260905181557 97 188 1.7 4.3 0.00 0.00 0.00 32 976.7
20260905181053 97 197 1.7 4.3 0.00 0.00 0.00 32 976.7
20260905180552 96 187 0.0 5.2 0.00 0.00 0.00 32 976.8
20260905180052 96 188 1.7 5.2 0.00 0.00 0.00 33 976.8
20260905175551 96 136 1.7 4.3 0.00 0.00 0.00 33 976.9
20260905175052 96 229 1.7 5.2 0.00 0.00 0.00 34 977.0
20260905174551 95 230 2.6 5.2 0.00 0.00 0.00 34 977.0
20260905174051 95 251 1.7 4.3 0.00 0.00 0.00 34 976.9
20260905173552 95 254 1.7 4.3 0.00 0.00 0.00 35 976.9
20260905173052 94 253 2.6 5.2 0.00 0.00 0.00 35 976.9
20260905172551 94 257 1.7 5.2 0.00 0.00 0.00 35 977.0
20260905172052 94 264 0.0 2.6 0.00 0.00 0.00 36 976.9
20260905171551 93 74 0.0 2.6 0.00 0.00 0.00 36 976.9
20260905171051 93 360 0.9 2.6 0.00 0.00 0.00 36 976.8
20260905170552 93 360 0.0 2.6 0.00 0.00 0.00 36 976.8
20260905170052 93 17 0.9 3.5 0.00 0.00 0.00 36 976.9
20260905165551 92 17 1.7 3.5 0.00 0.00 0.00 36 976.7
20260905165051 92 17 0.9 2.6 0.00 0.00 0.00 36 976.7
20260905164555 91 360 0.0 3.5 0.00 0.00 0.00 36 976.7
20260905164052 91 360 1.7 3.5 0.00 0.00 0.00 37 976.9
20260905163551 91 360 1.7 3.5 0.00 0.00 0.00 37 976.8
20260905163052 91 360 1.7 3.5 0.00 0.00 0.00 37 976.8
20260905162552 91 360 1.7 3.5 0.00 0.00 0.00 37 976.7
20260905162051 90 360 1.7 3.5 0.00 0.00 0.00 37 976.7
20260905161551 90 360 1.7 2.6 0.00 0.00 0.00 40 976.8
20260905161052 90 360 0.9 2.6 0.00 0.00 0.00 39 976.7
20260905160555 90 360 1.7 2.6 0.00 0.00 0.00 39 976.6
20260905160051 89 360 0.9 2.6 0.00 0.00 0.00 39 976.6
20260905155551 89 360 0.0 2.6 0.00 0.00 0.00 40 976.5
20260905155051 89 360 0.9 2.6 0.00 0.00 0.00 40 976.7
20260905154551 89 360 1.7 2.6 0.00 0.00 0.00 42 976.6
20260905154052 89 360 0.9 2.6 0.00 0.00 0.00 41 976.4
20260905153552 89 360 0.9 2.6 0.00 0.00 0.00 41 976.3
20260905153059 88 360 0.9 2.6 0.00 0.00 0.00 42 976.4